Year,Month,Day,Hour,Minute,Value (Times are PST for windspeed in km/hr)
2010,04,03,00,00,25.30
2010,04,03,00,01,20.10
2010,04,03,00,02,20.60
2010,04,03,00,03,37.30
2010,04,03,00,04,31.50
2010,04,03,00,05,27.50
2010,04,03,00,06,30.70
2010,04,03,00,07,19.70
2010,04,03,00,08,22.00
2010,04,03,00,09,24.20
2010,04,03,00,10,20.00
2010,04,03,00,11,26.20
2010,04,03,00,12,25.60
2010,04,03,00,13,21.40
2010,04,03,00,14,24.20
2010,04,03,00,15,20.10
2010,04,03,00,16,22.10
2010,04,03,00,17,23.30
2010,04,03,00,18,25.00
2010,04,03,00,19,25.70
2010,04,03,00,20,27.00
2010,04,03,00,21,24.60
2010,04,03,00,22,28.40
2010,04,03,00,23,26.70
2010,04,03,00,24,20.30
2010,04,03,00,25,25.80
2010,04,03,00,26,29.10
2010,04,03,00,27,28.50
2010,04,03,00,28,21.60
2010,04,03,00,29,22.40
2010,04,03,00,30,26.40
2010,04,03,00,31,22.70
2010,04,03,00,32,30.90
2010,04,03,00,33,40.10
2010,04,03,00,34,30.40
2010,04,03,00,35,23.30
2010,04,03,00,36,25.60
2010,04,03,00,37,22.50
2010,04,03,00,38,31.40
2010,04,03,00,39,24.50
2010,04,03,00,40,26.90
2010,04,03,00,41,31.20
2010,04,03,00,42,30.30
2010,04,03,00,43,23.80
2010,04,03,00,44,19.10
2010,04,03,00,45,26.70
2010,04,03,00,46,36.70
2010,04,03,00,47,32.60
2010,04,03,00,48,23.80
2010,04,03,00,49,27.40
2010,04,03,00,50,21.60
2010,04,03,00,51,34.60
2010,04,03,00,52,31.00
2010,04,03,00,53,28.70
2010,04,03,00,54,24.40
2010,04,03,00,55,26.70
2010,04,03,00,56,23.70
2010,04,03,00,57,30.00
2010,04,03,00,58,27.00
2010,04,03,00,59,25.40
2010,04,03,01,00,21.40
2010,04,03,01,01,25.80
2010,04,03,01,02,27.50
2010,04,03,01,03,26.90
2010,04,03,01,04,21.10
2010,04,03,01,05,26.50
2010,04,03,01,06,21.80
2010,04,03,01,07,24.10
2010,04,03,01,08,24.90
2010,04,03,01,09,22.50
2010,04,03,01,10,23.10
2010,04,03,01,11,14.80
2010,04,03,01,12,22.10
2010,04,03,01,13,13.30
2010,04,03,01,14,15.70
2010,04,03,01,15,13.30
2010,04,03,01,16,23.80
2010,04,03,01,17,16.50
2010,04,03,01,18,12.00
2010,04,03,01,19,17.80
2010,04,03,01,20,20.40
2010,04,03,01,21,15.80
2010,04,03,01,22,25.10
2010,04,03,01,23,22.60
2010,04,03,01,24,19.00
2010,04,03,01,25,13.00
2010,04,03,01,26,18.80
2010,04,03,01,27,22.10
2010,04,03,01,28,18.70
2010,04,03,01,29,15.60
2010,04,03,01,30,14.10
2010,04,03,01,31,18.40
2010,04,03,01,32,17.20
2010,04,03,01,33,15.60
2010,04,03,01,34,23.00
2010,04,03,01,35,20.10
2010,04,03,01,36,14.80
2010,04,03,01,37,17.10
2010,04,03,01,38,17.00
2010,04,03,01,39,17.20
2010,04,03,01,40,14.70
2010,04,03,01,41,18.40
2010,04,03,01,42,19.50
2010,04,03,01,43,12.90
2010,04,03,01,44,12.20
2010,04,03,01,45,16.90
2010,04,03,01,46,14.80
2010,04,03,01,47,15.10
2010,04,03,01,48,17.20
2010,04,03,01,49,21.40
2010,04,03,01,50,13.20
2010,04,03,01,51,14.70
2010,04,03,01,52,14.40
2010,04,03,01,53,9.30
2010,04,03,01,54,14.20
2010,04,03,01,55,13.40
2010,04,03,01,56,12.40
2010,04,03,01,57,11.90
2010,04,03,01,58,9.40
2010,04,03,01,59,14.60
2010,04,03,02,00,20.80
2010,04,03,02,01,13.90
2010,04,03,02,02,13.10
2010,04,03,02,03,19.90
2010,04,03,02,04,19.00
2010,04,03,02,05,26.90
2010,04,03,02,06,9.90
2010,04,03,02,07,12.00
2010,04,03,02,08,16.30
2010,04,03,02,09,18.60
2010,04,03,02,10,10.50
2010,04,03,02,11,17.90
2010,04,03,02,12,17.10
2010,04,03,02,13,14.10
2010,04,03,02,14,16.70
2010,04,03,02,15,18.70
2010,04,03,02,16,17.20
2010,04,03,02,17,19.40
2010,04,03,02,18,26.20
2010,04,03,02,19,23.00
2010,04,03,02,20,25.40
2010,04,03,02,21,22.30
2010,04,03,02,22,22.20
2010,04,03,02,23,16.60
2010,04,03,02,24,18.10
2010,04,03,02,25,22.20
2010,04,03,02,26,19.40
2010,04,03,02,27,22.50
2010,04,03,02,28,19.70
2010,04,03,02,29,21.80
2010,04,03,02,30,20.10
2010,04,03,02,31,20.40
2010,04,03,02,32,20.00
2010,04,03,02,33,18.70
2010,04,03,02,34,21.60
2010,04,03,02,35,18.20
2010,04,03,02,36,20.00
2010,04,03,02,37,16.20
2010,04,03,02,38,12.90
2010,04,03,02,39,18.50
2010,04,03,02,40,17.50
2010,04,03,02,41,23.70
2010,04,03,02,42,13.00
2010,04,03,02,43,20.20
2010,04,03,02,44,16.10
2010,04,03,02,45,18.60
2010,04,03,02,46,20.70
2010,04,03,02,47,16.70
2010,04,03,02,48,14.00
2010,04,03,02,49,20.70
2010,04,03,02,50,23.40
2010,04,03,02,51,11.30
2010,04,03,02,52,14.40
2010,04,03,02,53,19.10
2010,04,03,02,54,20.10
2010,04,03,02,55,17.70
2010,04,03,02,56,18.80
2010,04,03,02,57,14.80
2010,04,03,02,58,13.80
2010,04,03,02,59,14.20
2010,04,03,03,00,12.70
2010,04,03,03,01,16.20
2010,04,03,03,02,17.10
2010,04,03,03,03,19.60
2010,04,03,03,04,19.50
2010,04,03,03,05,12.50
2010,04,03,03,06,15.90
2010,04,03,03,07,22.70
2010,04,03,03,08,17.50
2010,04,03,03,09,10.40
2010,04,03,03,10,16.90
2010,04,03,03,11,15.10
2010,04,03,03,12,14.70
2010,04,03,03,13,12.90
2010,04,03,03,14,18.00
2010,04,03,03,15,20.60
2010,04,03,03,16,19.40
2010,04,03,03,17,18.60
2010,04,03,03,18,14.40
2010,04,03,03,19,9.20
2010,04,03,03,20,14.40
2010,04,03,03,21,16.60
2010,04,03,03,22,17.20
2010,04,03,03,23,17.00
2010,04,03,03,24,12.10
2010,04,03,03,25,14.50
2010,04,03,03,26,8.20
2010,04,03,03,27,7.60
2010,04,03,03,28,14.10
2010,04,03,03,29,15.80
2010,04,03,03,30,10.60
2010,04,03,03,31,8.50
2010,04,03,03,32,10.00
2010,04,03,03,33,10.40
2010,04,03,03,34,8.20
2010,04,03,03,35,6.40
2010,04,03,03,36,11.10
2010,04,03,03,37,8.40
2010,04,03,03,38,17.50
2010,04,03,03,39,21.40
2010,04,03,03,40,14.70
2010,04,03,03,41,22.60
2010,04,03,03,42,19.70
2010,04,03,03,43,11.60
2010,04,03,03,44,6.30
2010,04,03,03,45,24.40
2010,04,03,03,46,20.10
2010,04,03,03,47,24.90
2010,04,03,03,48,11.70
2010,04,03,03,49,14.30
2010,04,03,03,50,18.90
2010,04,03,03,51,20.30
2010,04,03,03,52,15.80
2010,04,03,03,53,14.00
2010,04,03,03,54,12.20
2010,04,03,03,55,20.00
2010,04,03,03,56,16.70
2010,04,03,03,57,17.10
2010,04,03,03,58,20.60
2010,04,03,03,59,20.90
2010,04,03,04,00,17.60
2010,04,03,04,01,20.50
2010,04,03,04,02,19.30
2010,04,03,04,03,15.10
2010,04,03,04,04,21.10
2010,04,03,04,05,14.10
2010,04,03,04,06,13.70
2010,04,03,04,07,18.20
2010,04,03,04,08,17.30
2010,04,03,04,09,15.20
2010,04,03,04,10,12.90
2010,04,03,04,11,18.10
2010,04,03,04,12,18.70
2010,04,03,04,13,25.40
2010,04,03,04,14,11.50
2010,04,03,04,15,16.50
2010,04,03,04,16,16.60
2010,04,03,04,17,13.30
2010,04,03,04,18,17.10
2010,04,03,04,19,23.30
2010,04,03,04,20,14.80
2010,04,03,04,21,20.70
2010,04,03,04,22,21.40
2010,04,03,04,23,24.40
2010,04,03,04,24,21.60
2010,04,03,04,25,20.80
2010,04,03,04,26,18.20
2010,04,03,04,27,18.30
2010,04,03,04,28,20.00
2010,04,03,04,29,13.40
2010,04,03,04,30,14.80
2010,04,03,04,31,14.30
2010,04,03,04,32,18.70
2010,04,03,04,33,16.40
2010,04,03,04,34,19.50
2010,04,03,04,35,12.50
2010,04,03,04,36,11.60
2010,04,03,04,37,17.90
2010,04,03,04,38,8.70
2010,04,03,04,39,11.00
2010,04,03,04,40,14.30
2010,04,03,04,41,14.40
2010,04,03,04,42,15.00
2010,04,03,04,43,13.30
2010,04,03,04,44,14.20
2010,04,03,04,45,13.60
2010,04,03,04,46,17.10
2010,04,03,04,47,16.50
2010,04,03,04,48,18.10
2010,04,03,04,49,20.40
2010,04,03,04,50,21.90
2010,04,03,04,51,19.00
2010,04,03,04,52,18.70
2010,04,03,04,53,18.70
2010,04,03,04,54,17.30
2010,04,03,04,55,12.80
2010,04,03,04,56,11.70
2010,04,03,04,57,13.80
2010,04,03,04,58,13.00
2010,04,03,04,59,13.30
2010,04,03,05,00,12.20
2010,04,03,05,01,12.40
2010,04,03,05,02,8.50
2010,04,03,05,03,15.10
2010,04,03,05,04,16.90
2010,04,03,05,05,10.50
2010,04,03,05,06,16.30
2010,04,03,05,07,15.90
2010,04,03,05,08,17.20
2010,04,03,05,09,17.40
2010,04,03,05,10,14.70
2010,04,03,05,11,20.70
2010,04,03,05,12,19.40
2010,04,03,05,13,11.80
2010,04,03,05,14,16.20
2010,04,03,05,15,18.30
2010,04,03,05,16,18.50
2010,04,03,05,17,14.20
2010,04,03,05,18,16.80
2010,04,03,05,19,14.60
2010,04,03,05,20,19.10
2010,04,03,05,21,20.50
2010,04,03,05,22,26.60
2010,04,03,05,23,22.80
2010,04,03,05,24,16.40
2010,04,03,05,25,15.50
2010,04,03,05,26,16.30
2010,04,03,05,27,23.60
2010,04,03,05,28,24.80
2010,04,03,05,29,24.70
2010,04,03,05,30,17.80
2010,04,03,05,31,19.10
2010,04,03,05,32,24.40
2010,04,03,05,33,20.80
2010,04,03,05,34,16.30
2010,04,03,05,35,10.40
2010,04,03,05,36,15.00
2010,04,03,05,37,11.40
2010,04,03,05,38,16.30
2010,04,03,05,39,10.30
2010,04,03,05,40,7.40
2010,04,03,05,41,12.50
2010,04,03,05,42,11.60
2010,04,03,05,43,8.40
2010,04,03,05,44,10.00
2010,04,03,05,45,13.10
2010,04,03,05,46,6.60
2010,04,03,05,47,9.50
2010,04,03,05,48,12.40
2010,04,03,05,49,17.00
2010,04,03,05,50,10.40
2010,04,03,05,51,7.40
2010,04,03,05,52,9.80
2010,04,03,05,53,16.00
2010,04,03,05,54,11.00
2010,04,03,05,55,9.00
2010,04,03,05,56,10.50
2010,04,03,05,57,9.30
2010,04,03,05,58,5.40
2010,04,03,05,59,6.80
2010,04,03,06,00,5.80
2010,04,03,06,01,5.30
2010,04,03,06,02,4.10
2010,04,03,06,03,12.60
2010,04,03,06,04,9.00
2010,04,03,06,05,5.60
2010,04,03,06,06,14.40
2010,04,03,06,07,9.40
2010,04,03,06,08,9.50
2010,04,03,06,09,10.70
2010,04,03,06,10,13.90
2010,04,03,06,11,16.40
2010,04,03,06,12,12.30
2010,04,03,06,13,8.90
2010,04,03,06,14,15.20
2010,04,03,06,15,14.70
2010,04,03,06,16,12.10
2010,04,03,06,17,12.50
2010,04,03,06,18,13.10
2010,04,03,06,19,12.60
2010,04,03,06,20,11.90
2010,04,03,06,21,15.70
2010,04,03,06,22,12.40
2010,04,03,06,23,8.80
2010,04,03,06,24,10.80
2010,04,03,06,25,8.90
2010,04,03,06,26,18.70
2010,04,03,06,27,10.20
2010,04,03,06,28,8.80
2010,04,03,06,29,17.50
2010,04,03,06,30,23.00
2010,04,03,06,31,19.60
2010,04,03,06,32,10.80
2010,04,03,06,33,17.40
2010,04,03,06,34,17.90
2010,04,03,06,35,18.90
2010,04,03,06,36,8.80
2010,04,03,06,37,13.50
2010,04,03,06,38,13.30
2010,04,03,06,39,17.00
2010,04,03,06,40,18.70
2010,04,03,06,41,11.30
2010,04,03,06,42,12.90
2010,04,03,06,43,8.40
2010,04,03,06,44,12.00
2010,04,03,06,45,7.90
2010,04,03,06,46,15.30
2010,04,03,06,47,19.40
2010,04,03,06,48,14.00
2010,04,03,06,49,9.80
2010,04,03,06,50,6.90
2010,04,03,06,51,4.50
2010,04,03,06,52,4.40
2010,04,03,06,53,10.10
2010,04,03,06,54,9.80
2010,04,03,06,55,13.70
2010,04,03,06,56,9.30
2010,04,03,06,57,9.50
2010,04,03,06,58,9.20
2010,04,03,06,59,6.80
2010,04,03,07,00,9.00
2010,04,03,07,01,5.50
2010,04,03,07,02,4.90
2010,04,03,07,03,6.40
2010,04,03,07,04,7.60
2010,04,03,07,05,7.40
2010,04,03,07,06,5.30
2010,04,03,07,07,6.60
2010,04,03,07,08,5.50
2010,04,03,07,09,4.50
2010,04,03,07,10,1.40
2010,04,03,07,11,4.10
2010,04,03,07,12,5.50
2010,04,03,07,13,3.80
2010,04,03,07,14,3.90
2010,04,03,07,15,4.70
2010,04,03,07,16,7.10
2010,04,03,07,17,6.50
2010,04,03,07,18,9.40
2010,04,03,07,19,6.60
2010,04,03,07,20,6.20
2010,04,03,07,21,7.80
2010,04,03,07,22,7.50
2010,04,03,07,23,8.20
2010,04,03,07,24,11.70
2010,04,03,07,25,7.30
2010,04,03,07,26,7.40
2010,04,03,07,27,4.60
2010,04,03,07,28,5.00
2010,04,03,07,29,3.80
2010,04,03,07,30,0.70
2010,04,03,07,31,5.60
2010,04,03,07,32,6.40
2010,04,03,07,33,3.90
2010,04,03,07,34,0.60
2010,04,03,07,35,0.90
2010,04,03,07,36,4.50
2010,04,03,07,37,8.00
2010,04,03,07,38,10.80
2010,04,03,07,39,10.80
2010,04,03,07,40,8.00
2010,04,03,07,41,6.10
2010,04,03,07,42,6.70
2010,04,03,07,43,4.30
2010,04,03,07,44,5.40
2010,04,03,07,45,10.60
2010,04,03,07,46,11.20
2010,04,03,07,47,18.30
2010,04,03,07,48,12.90
2010,04,03,07,49,14.20
2010,04,03,07,50,9.80
2010,04,03,07,51,11.40
2010,04,03,07,52,8.10
2010,04,03,07,53,10.80
2010,04,03,07,54,13.70
2010,04,03,07,55,9.20
2010,04,03,07,56,13.50
2010,04,03,07,57,10.20
2010,04,03,07,58,14.80
2010,04,03,07,59,16.50
2010,04,03,08,00,15.50
2010,04,03,08,01,16.80
2010,04,03,08,02,17.50
2010,04,03,08,03,18.30
2010,04,03,08,04,29.60
2010,04,03,08,05,24.30
2010,04,03,08,06,24.00
2010,04,03,08,07,19.70
2010,04,03,08,08,21.20
2010,04,03,08,09,18.80
2010,04,03,08,10,15.10
2010,04,03,08,11,16.30
2010,04,03,08,12,20.70
2010,04,03,08,13,17.00
2010,04,03,08,14,16.50
2010,04,03,08,15,18.70
2010,04,03,08,16,17.20
2010,04,03,08,17,10.40
2010,04,03,08,18,16.70
2010,04,03,08,19,16.30
2010,04,03,08,20,13.60
2010,04,03,08,21,10.90
2010,04,03,08,22,9.20
2010,04,03,08,23,7.30
2010,04,03,08,24,9.20
2010,04,03,08,25,9.10
2010,04,03,08,26,3.20
2010,04,03,08,27,6.60
2010,04,03,08,28,11.10
2010,04,03,08,29,14.60
2010,04,03,08,30,8.40
2010,04,03,08,31,8.70
2010,04,03,08,32,8.10
2010,04,03,08,33,5.70
2010,04,03,08,34,4.80
2010,04,03,08,35,3.50
2010,04,03,08,36,7.30
2010,04,03,08,37,3.40
2010,04,03,08,38,5.60
2010,04,03,08,39,4.00
2010,04,03,08,40,6.10
2010,04,03,08,41,6.30
2010,04,03,08,42,7.60
2010,04,03,08,43,6.30
2010,04,03,08,44,7.30
2010,04,03,08,45,15.30
2010,04,03,08,46,9.70
2010,04,03,08,47,6.80
2010,04,03,08,48,8.60
2010,04,03,08,49,4.60
2010,04,03,08,50,5.40
2010,04,03,08,51,6.80
2010,04,03,08,52,5.50
2010,04,03,08,53,4.90
2010,04,03,08,54,8.50
2010,04,03,08,55,12.80
2010,04,03,08,56,9.30
2010,04,03,08,57,11.30
2010,04,03,08,58,13.30
2010,04,03,08,59,13.00
2010,04,03,09,00,13.90
2010,04,03,09,01,9.40
2010,04,03,09,02,13.70
2010,04,03,09,03,8.10
2010,04,03,09,04,7.70
2010,04,03,09,05,11.10
2010,04,03,09,06,9.80
2010,04,03,09,07,8.00
2010,04,03,09,08,7.30
2010,04,03,09,09,7.10
2010,04,03,09,10,8.00
2010,04,03,09,11,11.10
2010,04,03,09,12,8.50
2010,04,03,09,13,9.60
2010,04,03,09,14,16.80
2010,04,03,09,15,11.40
2010,04,03,09,16,9.80
2010,04,03,09,17,14.20
2010,04,03,09,18,11.20
2010,04,03,09,19,13.30
2010,04,03,09,20,16.60
2010,04,03,09,21,16.60
2010,04,03,09,22,13.80
2010,04,03,09,23,13.80
2010,04,03,09,24,9.20
2010,04,03,09,25,9.10
2010,04,03,09,26,17.80
2010,04,03,09,27,15.20
2010,04,03,09,28,13.10
2010,04,03,09,29,12.80
2010,04,03,09,30,19.80
2010,04,03,09,31,18.30
2010,04,03,09,32,15.70
2010,04,03,09,33,16.70
2010,04,03,09,34,19.30
2010,04,03,09,35,18.30
2010,04,03,09,36,16.40
2010,04,03,09,37,19.00
2010,04,03,09,38,18.30
2010,04,03,09,39,14.00
2010,04,03,09,40,21.00
2010,04,03,09,41,22.00
2010,04,03,09,42,21.10
2010,04,03,09,43,16.80
2010,04,03,09,44,16.40
2010,04,03,09,45,19.70
2010,04,03,09,46,19.20
2010,04,03,09,47,22.50
2010,04,03,09,48,17.00
2010,04,03,09,49,13.50
2010,04,03,09,50,16.20
2010,04,03,09,51,20.10
2010,04,03,09,52,19.90
2010,04,03,09,53,15.30
2010,04,03,09,54,21.20
2010,04,03,09,55,22.20
2010,04,03,09,56,26.10
2010,04,03,09,57,23.00
2010,04,03,09,58,17.40
2010,04,03,09,59,16.10
2010,04,03,10,00,20.70
2010,04,03,10,01,15.50
2010,04,03,10,02,16.70
2010,04,03,10,03,15.10
2010,04,03,10,04,16.80
2010,04,03,10,05,16.10
2010,04,03,10,06,19.70
2010,04,03,10,07,22.00
2010,04,03,10,08,22.00
2010,04,03,10,09,17.40
2010,04,03,10,10,17.40
2010,04,03,10,11,21.10
2010,04,03,10,12,22.90
2010,04,03,10,13,19.40
2010,04,03,10,14,22.30
2010,04,03,10,15,20.00
2010,04,03,10,16,14.30
2010,04,03,10,17,21.30
2010,04,03,10,18,16.70
2010,04,03,10,19,17.20
2010,04,03,10,20,11.70
2010,04,03,10,21,10.30
2010,04,03,10,22,11.10
2010,04,03,10,23,13.20
2010,04,03,10,24,16.70
2010,04,03,10,25,17.50
2010,04,03,10,26,14.90
2010,04,03,10,27,12.60
2010,04,03,10,28,9.80
2010,04,03,10,29,17.50
2010,04,03,10,30,19.40
2010,04,03,10,31,18.90
2010,04,03,10,32,18.40
2010,04,03,10,33,16.20
2010,04,03,10,34,20.70
2010,04,03,10,35,19.30
2010,04,03,10,36,15.90
2010,04,03,10,37,16.60
2010,04,03,10,38,13.10
2010,04,03,10,39,14.10
2010,04,03,10,40,15.90
2010,04,03,10,41,19.60
2010,04,03,10,42,15.50
2010,04,03,10,43,13.60
2010,04,03,10,44,13.30
2010,04,03,10,45,6.30
2010,04,03,10,46,7.40
2010,04,03,10,47,5.10
2010,04,03,10,48,18.00
2010,04,03,10,49,9.60
2010,04,03,10,50,11.70
2010,04,03,10,51,13.50
2010,04,03,10,52,14.00
2010,04,03,10,53,13.20
2010,04,03,10,54,5.50
2010,04,03,10,55,1.90
2010,04,03,10,56,9.60
2010,04,03,10,57,6.10
2010,04,03,10,58,4.60
2010,04,03,10,59,8.70
2010,04,03,11,00,14.00
2010,04,03,11,01,9.70
2010,04,03,11,02,7.30
2010,04,03,11,03,8.60
2010,04,03,11,04,6.20
2010,04,03,11,05,8.10
2010,04,03,11,06,6.80
2010,04,03,11,07,3.60
2010,04,03,11,08,6.30
2010,04,03,11,09,4.60
2010,04,03,11,10,13.10
2010,04,03,11,11,6.50
2010,04,03,11,12,8.20
2010,04,03,11,13,6.50
2010,04,03,11,14,5.00
2010,04,03,11,15,5.00
2010,04,03,11,16,4.40
2010,04,03,11,17,7.20
2010,04,03,11,18,13.20
2010,04,03,11,19,11.70
2010,04,03,11,20,9.90
2010,04,03,11,21,9.30
2010,04,03,11,22,6.60
2010,04,03,11,23,5.90
2010,04,03,11,24,3.70
2010,04,03,11,25,4.10
2010,04,03,11,26,5.50
2010,04,03,11,27,8.50
2010,04,03,11,28,5.40
2010,04,03,11,29,5.80
2010,04,03,11,30,4.10
2010,04,03,11,31,5.60
2010,04,03,11,32,7.20
2010,04,03,11,33,5.30
2010,04,03,11,34,8.10
2010,04,03,11,35,8.70
2010,04,03,11,36,12.50
2010,04,03,11,37,9.40
2010,04,03,11,38,7.60
2010,04,03,11,39,7.60
2010,04,03,11,40,4.80
2010,04,03,11,41,4.40
2010,04,03,11,42,3.70
2010,04,03,11,43,1.80
2010,04,03,11,44,1.00
2010,04,03,11,45,0.40
2010,04,03,11,46,0.00
2010,04,03,11,47,0.00
2010,04,03,11,48,0.00
2010,04,03,11,49,0.00
2010,04,03,11,50,0.00
2010,04,03,11,51,0.10
2010,04,03,11,52,0.10
2010,04,03,11,53,0.00
2010,04,03,11,54,0.00
2010,04,03,11,55,0.30
2010,04,03,11,56,0.10
2010,04,03,11,57,0.30
2010,04,03,11,58,0.00
2010,04,03,11,59,0.70
2010,04,03,12,00,0.10
2010,04,03,12,01,0.10
2010,04,03,12,02,0.20
2010,04,03,12,03,0.30
2010,04,03,12,04,0.10
2010,04,03,12,05,0.80
2010,04,03,12,06,0.70
2010,04,03,12,07,0.00
2010,04,03,12,08,0.00
2010,04,03,12,09,0.00
2010,04,03,12,10,0.10
2010,04,03,12,11,1.00
2010,04,03,12,12,1.40
2010,04,03,12,13,4.00
2010,04,03,12,14,2.20
2010,04,03,12,15,4.50
2010,04,03,12,16,1.80
2010,04,03,12,17,3.00
2010,04,03,12,18,2.20
2010,04,03,12,19,3.70
2010,04,03,12,20,3.30
2010,04,03,12,21,4.30
2010,04,03,12,22,6.50
2010,04,03,12,23,3.60
2010,04,03,12,24,3.60
2010,04,03,12,25,3.70
2010,04,03,12,26,0.90
2010,04,03,12,27,0.00
2010,04,03,12,28,0.00
2010,04,03,12,29,0.40
2010,04,03,12,30,0.00
2010,04,03,12,31,0.00
2010,04,03,12,32,0.10
2010,04,03,12,33,0.10
2010,04,03,12,34,0.00
2010,04,03,12,35,0.50
2010,04,03,12,36,0.20
2010,04,03,12,37,1.80
2010,04,03,12,38,0.20
2010,04,03,12,39,0.00
2010,04,03,12,40,0.00
2010,04,03,12,41,0.00
2010,04,03,12,42,0.00
2010,04,03,12,43,0.30
2010,04,03,12,44,2.00
2010,04,03,12,45,2.60
2010,04,03,12,46,2.90
2010,04,03,12,47,1.00
2010,04,03,12,48,0.20
2010,04,03,12,49,1.30
2010,04,03,12,50,1.20
2010,04,03,12,51,2.60
2010,04,03,12,52,0.70
2010,04,03,12,53,0.30
2010,04,03,12,54,1.90
2010,04,03,12,55,5.50
2010,04,03,12,56,7.70
2010,04,03,12,57,5.30
2010,04,03,12,58,5.20
2010,04,03,12,59,7.60
2010,04,03,13,00,0.70
2010,04,03,13,01,0.00
2010,04,03,13,02,1.80
2010,04,03,13,03,2.80
2010,04,03,13,04,0.80
2010,04,03,13,05,4.10
2010,04,03,13,06,0.10
2010,04,03,13,07,0.00
2010,04,03,13,08,0.40
2010,04,03,13,09,0.00
2010,04,03,13,10,1.70
2010,04,03,13,11,3.70
2010,04,03,13,12,0.20
2010,04,03,13,13,1.30
2010,04,03,13,14,7.90
2010,04,03,13,15,4.00
2010,04,03,13,16,5.40
2010,04,03,13,17,6.00
2010,04,03,13,18,4.90
2010,04,03,13,19,4.60
2010,04,03,13,20,7.40
2010,04,03,13,21,5.60
2010,04,03,13,22,2.60
2010,04,03,13,23,1.10
2010,04,03,13,24,0.70
2010,04,03,13,25,3.90
2010,04,03,13,26,1.90
2010,04,03,13,27,4.60
2010,04,03,13,28,7.80
2010,04,03,13,29,4.10
2010,04,03,13,30,2.00
2010,04,03,13,31,5.90
2010,04,03,13,32,2.00
2010,04,03,13,33,2.90
2010,04,03,13,34,2.00
2010,04,03,13,35,1.70
2010,04,03,13,36,6.00
2010,04,03,13,37,4.20
2010,04,03,13,38,3.60
2010,04,03,13,39,4.40
2010,04,03,13,40,4.80
2010,04,03,13,41,6.60
2010,04,03,13,42,7.20
2010,04,03,13,43,7.80
2010,04,03,13,44,5.80
2010,04,03,13,45,5.10
2010,04,03,13,46,6.00
2010,04,03,13,47,6.30
2010,04,03,13,48,5.30
2010,04,03,13,49,6.00
2010,04,03,13,50,7.40
2010,04,03,13,51,5.20
2010,04,03,13,52,6.30
2010,04,03,13,53,5.10
2010,04,03,13,54,4.80
2010,04,03,13,55,6.30
2010,04,03,13,56,8.10
2010,04,03,13,57,8.50
2010,04,03,13,58,9.40
2010,04,03,13,59,5.00
2010,04,03,14,00,2.60
2010,04,03,14,01,5.40
2010,04,03,14,02,5.30
2010,04,03,14,03,5.20
2010,04,03,14,04,4.50
2010,04,03,14,05,5.80
2010,04,03,14,06,7.10
2010,04,03,14,07,10.70
2010,04,03,14,08,6.10
2010,04,03,14,09,6.80
2010,04,03,14,10,5.40
2010,04,03,14,11,3.20
2010,04,03,14,12,4.40
2010,04,03,14,13,5.00
2010,04,03,14,14,3.90
2010,04,03,14,15,0.70
2010,04,03,14,16,3.30
2010,04,03,14,17,6.90
2010,04,03,14,18,4.20
2010,04,03,14,19,1.80
2010,04,03,14,20,3.30
2010,04,03,14,21,1.90
2010,04,03,14,22,4.00
2010,04,03,14,23,3.70
2010,04,03,14,24,0.60
2010,04,03,14,25,1.60
2010,04,03,14,26,6.50
2010,04,03,14,27,4.60
2010,04,03,14,28,0.70
2010,04,03,14,29,2.60
2010,04,03,14,30,4.90
2010,04,03,14,31,1.80
2010,04,03,14,32,7.30
2010,04,03,14,33,6.80
2010,04,03,14,34,6.30
2010,04,03,14,35,5.20
2010,04,03,14,36,7.40
2010,04,03,14,37,5.70
2010,04,03,14,38,8.10
2010,04,03,14,39,11.40
2010,04,03,14,40,4.10
2010,04,03,14,41,2.00
2010,04,03,14,42,4.90
2010,04,03,14,43,3.60
2010,04,03,14,44,4.00
2010,04,03,14,45,6.30
2010,04,03,14,46,4.30
2010,04,03,14,47,4.10
2010,04,03,14,48,5.00
2010,04,03,14,49,6.50
2010,04,03,14,50,7.20
2010,04,03,14,51,4.30
2010,04,03,14,52,4.50
2010,04,03,14,53,5.80
2010,04,03,14,54,6.80
2010,04,03,14,55,7.30
2010,04,03,14,56,4.30
2010,04,03,14,57,2.10
2010,04,03,14,58,5.40
2010,04,03,14,59,5.10
2010,04,03,15,00,7.90
2010,04,03,15,01,6.20
2010,04,03,15,02,7.60
2010,04,03,15,03,8.30
2010,04,03,15,04,6.00
2010,04,03,15,05,7.10
2010,04,03,15,06,5.60
2010,04,03,15,07,4.40
2010,04,03,15,08,4.30
2010,04,03,15,09,6.40
2010,04,03,15,10,6.80
2010,04,03,15,11,12.20
2010,04,03,15,12,5.70
2010,04,03,15,13,4.80
2010,04,03,15,14,6.30
2010,04,03,15,15,5.70
2010,04,03,15,16,2.40
2010,04,03,15,17,3.90
2010,04,03,15,18,6.40
2010,04,03,15,19,3.70
2010,04,03,15,20,3.50
2010,04,03,15,21,3.70
2010,04,03,15,22,2.70
2010,04,03,15,23,5.00
2010,04,03,15,24,7.30
2010,04,03,15,25,7.20
2010,04,03,15,26,2.70
2010,04,03,15,27,7.20
2010,04,03,15,28,4.10
2010,04,03,15,29,2.80
2010,04,03,15,30,4.00
2010,04,03,15,31,1.00
2010,04,03,15,32,3.00
2010,04,03,15,33,7.50
2010,04,03,15,34,3.70
2010,04,03,15,35,5.30
2010,04,03,15,36,1.80
2010,04,03,15,37,1.60
2010,04,03,15,38,2.60
2010,04,03,15,39,4.80
2010,04,03,15,40,5.20
2010,04,03,15,41,4.30
2010,04,03,15,42,5.70
2010,04,03,15,43,9.50
2010,04,03,15,44,9.60
2010,04,03,15,45,5.80
2010,04,03,15,46,2.60
2010,04,03,15,47,2.20
2010,04,03,15,48,3.40
2010,04,03,15,49,2.30
2010,04,03,15,50,4.80
2010,04,03,15,51,8.20
2010,04,03,15,52,6.00
2010,04,03,15,53,6.90
2010,04,03,15,54,7.30
2010,04,03,15,55,5.50
2010,04,03,15,56,4.90
2010,04,03,15,57,9.10
2010,04,03,15,58,7.20
2010,04,03,15,59,8.20
2010,04,03,16,00,6.20
2010,04,03,16,01,4.80
2010,04,03,16,02,2.60
2010,04,03,16,03,2.40
2010,04,03,16,04,5.80
2010,04,03,16,05,3.50
2010,04,03,16,06,6.60
2010,04,03,16,07,5.20
2010,04,03,16,08,7.60
2010,04,03,16,09,5.60
2010,04,03,16,10,6.30
2010,04,03,16,11,3.30
2010,04,03,16,12,3.70
2010,04,03,16,13,4.60
2010,04,03,16,14,9.60
2010,04,03,16,15,6.30
2010,04,03,16,16,4.80
2010,04,03,16,17,10.90
2010,04,03,16,18,4.70
2010,04,03,16,19,3.50
2010,04,03,16,20,7.10
2010,04,03,16,21,5.20
2010,04,03,16,22,3.90
2010,04,03,16,23,2.40
2010,04,03,16,24,1.00
2010,04,03,16,25,2.80
2010,04,03,16,26,1.50
2010,04,03,16,27,4.60
2010,04,03,16,28,5.30
2010,04,03,16,29,7.10
2010,04,03,16,30,9.00
2010,04,03,16,31,6.20
2010,04,03,16,32,6.20
2010,04,03,16,33,5.10
2010,04,03,16,34,2.70
2010,04,03,16,35,2.80
2010,04,03,16,36,1.80
2010,04,03,16,37,5.60
2010,04,03,16,38,7.90
2010,04,03,16,39,4.80
2010,04,03,16,40,4.60
2010,04,03,16,41,1.80
2010,04,03,16,42,5.10
2010,04,03,16,43,0.50
2010,04,03,16,44,2.70
2010,04,03,16,45,4.10
2010,04,03,16,46,2.80
2010,04,03,16,47,0.00
2010,04,03,16,48,0.20
2010,04,03,16,49,1.70
2010,04,03,16,50,4.40
2010,04,03,16,51,1.90
2010,04,03,16,52,3.90
2010,04,03,16,53,4.30
2010,04,03,16,54,7.30
2010,04,03,16,55,5.80
2010,04,03,16,56,1.90
2010,04,03,16,57,1.30
2010,04,03,16,58,3.60
2010,04,03,16,59,1.50
2010,04,03,17,00,3.10
2010,04,03,17,01,3.90
2010,04,03,17,02,5.90
2010,04,03,17,03,1.90
2010,04,03,17,04,1.30
2010,04,03,17,05,5.20
2010,04,03,17,06,6.80
2010,04,03,17,07,5.40
2010,04,03,17,08,4.50
2010,04,03,17,09,1.50
2010,04,03,17,10,4.00
2010,04,03,17,11,6.30
2010,04,03,17,12,6.40
2010,04,03,17,13,8.20
2010,04,03,17,14,5.80
2010,04,03,17,15,8.90
2010,04,03,17,16,6.30
2010,04,03,17,17,4.00
2010,04,03,17,18,4.50
2010,04,03,17,19,4.90
2010,04,03,17,20,3.80
2010,04,03,17,21,3.60
2010,04,03,17,22,2.00
2010,04,03,17,23,2.60
2010,04,03,17,24,1.20
2010,04,03,17,25,3.20
2010,04,03,17,26,1.00
2010,04,03,17,27,5.40
2010,04,03,17,28,6.00
2010,04,03,17,29,3.80
2010,04,03,17,30,5.70
2010,04,03,17,31,2.10
2010,04,03,17,32,0.20
2010,04,03,17,33,0.90
2010,04,03,17,34,6.30
2010,04,03,17,35,4.40
2010,04,03,17,36,5.30
2010,04,03,17,37,7.60
2010,04,03,17,38,9.70
2010,04,03,17,39,7.90
2010,04,03,17,40,2.50
2010,04,03,17,41,1.30
2010,04,03,17,42,6.30